Wind_Speed
37 37 36 37 37 37 38 38 37 38 38 38 37 35 34 33 32 30 29 28 26 25 24 23 22 21 21 21 22 22 23 24 24 24 25 26 27 27 28 28 28 29 30
36 38 39 37 38 39 39 38 38 38 38 38 37 36 34 33 32 30 29 27 26 24 24 23 22 22 22 22 22 22 23 24 25 25 25 25 26 26 27 27 27 28 29
36 38 38 37 37 37 36 35 37 38 38 38 38 36 34 34 33 30 29 27 26 25 25 24 24 24 23 23 23 23 24 25 25 26 26 26 25 25 25 26 27 27 27
29 32 34 34 34 36 36 36 38 39 40 39 38 35 35 34 32 30 28 27 26 26 25 25 25 25 25 25 25 25 25 25 26 27 27 27 26 25 24 25 26 27 27
29 31 32 33 35 36 36 37 38 37 37 37 37 36 35 33 31 30 29 28 28 27 27 27 27 27 27 27 27 26 26 27 27 27 28 28 27 27 26 25 26 27 27
31 32 31 32 33 34 36 36 36 36 37 38 37 37 35 34 34 33 32 30 30 30 30 30 30 30 30 30 30 29 29 29 29 29 29 29 29 28 28 27 26 27 27
32 32 32 33 33 34 36 37 37 39 40 40 40 40 38 38 37 36 35 34 33 33 34 34 33 34 33 33 33 32 31 31 30 30 30 30 30 30 30 29 28 27 26
32 32 33 34 36 37 39 40 41 42 43 43 43 43 43 42 41 40 39 39 38 37 37 37 37 37 37 36 35 34 34 33 32 32 32 31 31 30 30 30 29 27 27
35 36 37 39 40 41 42 43 45 46 47 48 48 48 48 47 46 45 44 44 42 42 42 41 41 40 39 39 38 37 36 35 34 34 33 32 32 31 30 30 29 28 26
39 40 41 42 44 45 47 48 50 51 51 52 53 53 53 53 52 51 49 48 47 46 46 45 45 43 42 41 40 39 38 37 36 35 34 33 33 32 31 30 29 28 27
43 44 45 46 48 49 50 52 53 54 55 55 56 57 57 57 57 57 55 54 53 52 51 49 48 47 45 43 42 41 40 39 38 37 35 34 33 32 31 30 29 28 28
48 50 51 51 52 53 54 55 56 57 58 59 59 60 60 61 61 61 60 59 58 57 55 54 52 50 48 47 45 44 42 40 38 37 36 35 34 32 31 30 29 29 28
52 53 54 55 55 56 57 58 59 60 61 62 63 64 65 65 66 66 65 64 63 62 60 59 57 55 52 50 48 46 44 42 40 37 36 35 34 33 32 31 29 29 28
56 56 57 58 59 60 61 62 63 64 65 66 67 68 69 70 70 70 70 69 69 68 66 64 62 59 56 53 51 49 46 44 41 39 37 36 35 34 33 31 30 29 28
59 60 61 63 64 64 65 67 67 68 69 70 71 72 73 73 74 74 75 74 74 73 72 70 66 63 60 57 55 51 49 46 43 40 39 37 36 34 33 32 30 29 28
63 64 66 67 67 68 69 69 69 70 70 70 70 70 70 71 72 73 74 75 75 75 75 74 71 68 65 61 58 55 52 49 46 43 40 38 36 35 33 32 31 29 28
66 67 68 69 70 69 68 67 66 64 62 61 59 58 58 59 59 61 63 65 67 69 69 71 71 70 68 64 61 57 54 51 47 44 41 39 37 36 34 32 31 30 28
68 69 69 69 67 65 62 60 57 54 51 48 45 43 43 44 45 47 49 52 54 57 59 61 62 63 63 63 61 58 54 51 48 45 42 39 38 36 34 32 31 29 27
67 67 66 63 60 57 53 50 46 43 39 36 35 35 35 35 35 36 38 40 42 45 48 49 51 53 54 55 56 55 53 50 46 44 42 39 37 36 33 31 30 28 26
65 63 59 55 51 47 44 41 39 36 34 33 33 32 31 30 29 30 30 31 32 33 36 38 41 43 45 47 49 50 50 47 44 43 41 39 36 34 32 30 28 27 25
61 57 53 48 44 42 40 37 35 33 33 33 32 30 30 29 28 27 27 28 28 28 28 28 30 33 36 39 42 45 46 45 43 40 39 37 35 32 30 29 27 25 24
56 51 47 44 41 39 38 37 35 34 34 33 31 30 30 30 29 28 27 27 27 26 26 25 25 26 29 32 36 40 41 41 40 38 37 35 33 31 29 27 26 25 24
50 46 44 42 40 39 39 39 38 37 36 35 34 33 32 30 29 29 28 27 26 25 24 22 21 22 24 26 31 37 38 39 39 37 36 33 31 29 28 26 25 24 23
46 45 43 42 40 40 41 40 40 39 39 38 37 36 34 32 30 29 28 26 25 23 22 20 20 20 21 24 29 36 38 38 38 37 35 32 30 28 27 25 25 24 23
46 45 44 43 43 42 42 42 42 41 41 40 39 37 35 33 30 28 26 25 23 22 20 19 18 18 19 21 27 33 37 38 37 36 34 32 30 27 25 23 23 23 23
48 47 45 45 45 44 44 43 42 41 40 38 37 35 34 31 28 26 24 23 23 21 20 19 18 17 18 19 24 31 35 37 37 36 33 31 29 27 26 24 23 23 22
Wind_Direction
272 274 275 280 281 282 285 285 286 289 291 292 295 296 297 297 298 296 293 291 289 287 286 286 287 290 292 293 295 296 298 298 298 298 297 295 292 288 284 282 281 277 273
275 276 279 277 280 281 281 281 283 287 287 289 291 292 294 295 295 294 291 287 284 283 282 284 285 288 290 292 294 297 300 301 301 300 299 299 295 295 289 284 283 280 274
274 275 275 276 278 277 276 277 283 286 286 287 288 289 291 292 292 290 288 286 283 281 281 283 284 286 287 290 292 295 298 300 302 303 303 302 298 295 293 288 284 280 276
279 280 279 276 275 276 277 280 282 283 285 285 286 287 289 290 289 287 285 282 280 279 279 280 282 284 286 288 290 293 296 299 301 302 303 303 300 298 294 289 286 280 274
290 287 281 279 278 278 280 281 280 281 284 286 286 286 286 288 287 286 285 282 279 278 277 278 279 282 284 286 288 291 293 296 299 300 301 302 300 298 297 292 286 282 276
293 289 285 282 281 282 282 281 281 282 283 284 285 285 286 286 286 286 284 281 279 278 278 278 279 280 282 284 286 288 291 293 296 297 299 299 299 297 296 295 289 285 281
294 291 287 286 284 284 284 283 281 284 284 283 283 284 285 285 284 283 284 282 279 278 278 279 279 280 281 282 283 285 287 289 292 294 296 297 297 296 295 294 291 287 284
297 294 292 289 287 286 285 283 282 284 284 284 284 284 284 283 281 281 280 279 278 277 277 277 278 278 279 279 280 282 284 286 288 290 293 294 294 295 295 293 291 288 284
298 295 293 291 289 287 285 284 283 283 283 282 282 281 281 281 280 279 278 276 275 274 274 274 274 275 275 276 276 278 281 282 284 286 289 290 291 292 292 292 290 288 284
296 294 292 290 289 287 285 284 283 282 281 281 280 280 280 279 278 277 276 274 272 271 271 270 270 271 272 273 273 274 275 278 281 282 284 287 288 289 289 289 288 287 285
296 294 292 290 288 286 285 284 283 282 280 279 278 278 277 277 276 276 275 273 271 269 268 268 268 268 268 269 270 272 272 274 276 279 280 283 285 286 287 287 286 285 285
294 294 293 291 290 288 286 285 283 282 281 279 278 277 276 275 275 274 273 272 271 269 268 267 266 266 266 266 267 269 270 271 273 275 277 279 282 284 285 285 284 283 282
295 294 294 293 292 290 288 286 284 282 281 279 277 276 275 273 273 272 271 271 270 268 267 266 266 265 264 265 265 266 268 269 269 271 273 276 278 281 283 282 281 281 280
298 297 296 295 293 291 289 288 285 283 282 280 278 277 275 273 272 271 270 269 268 267 267 266 265 264 263 262 263 263 264 266 267 268 270 272 275 277 279 279 279 279 278
300 300 299 297 295 293 291 289 287 285 283 281 279 277 275 274 272 271 269 268 267 266 265 264 264 263 261 261 260 260 261 262 263 265 266 268 270 272 274 275 276 277 276
302 301 300 298 297 295 293 292 290 288 286 284 282 280 278 275 273 271 269 268 267 266 264 263 262 260 259 258 258 258 258 258 259 260 262 264 266 268 270 271 273 274 274
304 304 302 301 299 298 297 295 294 292 291 289 286 284 281 278 276 274 272 270 267 265 264 262 260 259 257 255 255 256 255 255 256 256 258 259 261 264 266 268 270 271 270
308 306 304 302 301 300 299 298 298 297 295 293 291 289 287 285 282 278 275 272 269 267 265 262 260 258 255 253 252 250 251 251 251 252 253 254 257 259 262 264 266 266 264
308 306 305 304 304 304 303 301 301 300 298 296 295 295 294 292 289 285 281 278 274 271 268 264 260 257 253 249 247 245 244 245 246 247 248 250 253 255 257 259 260 260 259
311 309 308 308 308 307 306 305 304 301 299 298 298 298 297 297 296 292 288 284 280 276 271 267 262 257 251 246 241 239 238 238 239 241 242 244 247 249 251 253 255 255 253
313 312 311 311 310 308 307 306 304 302 300 299 298 297 296 296 296 294 292 288 284 279 274 269 263 256 249 242 236 232 230 230 231 233 235 238 241 243 244 247 248 249 248
316 314 313 312 311 309 307 305 303 301 300 299 298 297 295 294 293 292 290 289 285 280 275 269 262 254 246 238 230 223 221 221 222 225 228 231 234 236 236 238 241 242 240
318 316 314 313 310 308 306 305 302 300 298 297 296 294 294 293 290 288 287 286 284 279 274 270 262 252 244 234 223 211 209 212 214 216 221 223 226 228 229 231 234 235 234
319 317 315 313 310 307 305 303 301 299 296 295 293 292 291 289 288 286 283 282 280 275 270 264 258 251 243 231 216 207 204 204 206 207 211 215 217 221 223 225 227 228 225
320 317 315 313 311 308 305 303 301 298 295 293 292 290 289 287 284 281 279 276 274 270 263 259 255 249 238 223 212 204 198 196 197 200 204 208 211 216 217 216 217 217 217
320 318 316 313 311 309 307 305 302 298 295 293 291 289 287 283 278 275 274 271 268 263 257 253 250 246 233 216 206 196 189 191 193 195 199 204 207 208 209 209 207 206 205
Height
5864 5862 5859 5857 5858 5857 5856 5856 5855 5855 5855 5854 5852 5851 5850 5849 5847 5845 5844 5842 5840 5839 5837 5836 5835 5834 5833 5832 5831 5829 5827 5826 5824 5823 5822 5821 5820 5820 5819 5819 5819 5819 5819
5857 5856 5855 5852 5851 5849 5848 5848 5849 5849 5847 5846 5845 5844 5842 5842 5840 5839 5837 5836 5834 5833 5832 5831 5830 5829 5828 5827 5825 5824 5822 5820 5818 5817 5816 5815 5815 5813 5812 5812 5811 5812 5812
5850 5847 5848 5846 5845 5843 5839 5838 5842 5841 5838 5838 5837 5836 5835 5834 5833 5832 5831 5830 5828 5827 5826 5825 5825 5824 5823 5821 5820 5818 5817 5815 5813 5811 5809 5808 5808 5807 5807 5805 5805 5804 5804
5840 5841 5839 5839 5838 5837 5834 5835 5835 5834 5832 5831 5829 5829 5828 5827 5826 5825 5824 5823 5822 5821 5820 5820 5819 5818 5817 5816 5814 5813 5811 5809 5807 5805 5803 5802 5800 5800 5800 5799 5798 5797 5797
5838 5837 5834 5833 5831 5830 5830 5829 5827 5826 5824 5823 5821 5821 5820 5819 5819 5818 5817 5815 5815 5814 5814 5813 5812 5811 5810 5809 5808 5806 5805 5803 5801 5799 5797 5795 5793 5792 5792 5792 5791 5790 5789
5836 5832 5829 5828 5826 5824 5823 5821 5819 5817 5816 5815 5814 5813 5812 5811 5810 5809 5808 5808 5807 5807 5806 5806 5805 5804 5803 5802 5801 5800 5798 5796 5794 5793 5791 5789 5787 5786 5784 5784 5783 5782 5782
5830 5828 5824 5821 5819 5817 5815 5813 5810 5809 5808 5806 5805 5804 5803 5802 5801 5801 5800 5799 5798 5798 5798 5797 5797 5796 5795 5794 5793 5792 5790 5789 5787 5786 5784 5782 5780 5779 5777 5776 5775 5775 5774
5825 5822 5819 5816 5813 5811 5808 5805 5802 5800 5798 5797 5795 5794 5793 5792 5791 5791 5790 5789 5789 5788 5788 5788 5787 5787 5786 5785 5784 5783 5782 5781 5780 5778 5776 5775 5773 5772 5770 5769 5768 5768 5767
5818 5815 5812 5808 5805 5802 5799 5796 5793 5791 5788 5785 5783 5782 5781 5780 5779 5779 5778 5778 5778 5778 5777 5777 5777 5777 5776 5776 5775 5774 5773 5772 5771 5770 5769 5767 5766 5764 5763 5762 5761 5760 5760
5810 5806 5803 5799 5796 5792 5788 5785 5782 5779 5776 5773 5771 5768 5767 5766 5765 5765 5765 5765 5765 5765 5765 5765 5765 5765 5765 5765 5765 5764 5764 5763 5762 5761 5760 5759 5758 5757 5756 5754 5753 5753 5752
5800 5796 5792 5788 5784 5780 5776 5772 5768 5765 5762 5759 5757 5754 5752 5751 5750 5749 5749 5749 5750 5750 5751 5751 5751 5752 5753 5753 5753 5754 5754 5753 5753 5752 5751 5750 5749 5749 5748 5747 5746 5745 5745
5790 5785 5780 5775 5771 5766 5762 5758 5754 5750 5746 5743 5740 5738 5736 5734 5733 5732 5731 5732 5733 5733 5734 5735 5736 5738 5739 5740 5741 5742 5742 5743 5743 5742 5742 5742 5741 5740 5739 5739 5739 5738 5738
5778 5772 5767 5762 5756 5751 5746 5741 5737 5733 5729 5725 5722 5720 5717 5715 5714 5713 5712 5712 5713 5715 5716 5718 5720 5722 5724 5725 5727 5728 5730 5731 5732 5732 5732 5732 5732 5732 5731 5731 5731 5730 5730
5765 5759 5752 5746 5741 5735 5729 5723 5718 5713 5709 5705 5702 5699 5696 5694 5693 5692 5691 5692 5692 5694 5696 5698 5701 5704 5706 5709 5712 5714 5716 5718 5719 5721 5722 5722 5723 5723 5723 5723 5723 5723 5722
5751 5744 5737 5729 5723 5716 5709 5703 5697 5691 5686 5682 5678 5675 5672 5670 5668 5667 5667 5668 5669 5671 5673 5676 5680 5684 5688 5691 5695 5699 5702 5705 5707 5709 5711 5712 5713 5713 5714 5714 5715 5715 5715
5736 5727 5719 5710 5703 5695 5688 5681 5674 5667 5662 5657 5653 5649 5646 5644 5642 5641 5641 5642 5643 5645 5648 5652 5657 5662 5667 5672 5677 5682 5686 5690 5693 5697 5699 5701 5703 5704 5705 5706 5707 5708 5708
5718 5708 5699 5689 5681 5672 5664 5657 5650 5644 5638 5633 5629 5625 5622 5620 5618 5616 5616 5616 5617 5619 5622 5626 5631 5638 5644 5650 5657 5663 5669 5675 5679 5683 5687 5690 5692 5694 5696 5697 5699 5700 5700
5699 5689 5678 5668 5659 5651 5642 5635 5629 5623 5618 5614 5610 5606 5603 5601 5599 5597 5596 5595 5595 5597 5599 5603 5607 5613 5620 5628 5636 5644 5651 5658 5664 5669 5674 5678 5681 5684 5686 5688 5690 5692 5693
5681 5670 5659 5649 5640 5632 5624 5618 5613 5608 5603 5600 5596 5593 5590 5587 5585 5583 5581 5579 5579 5579 5581 5584 5587 5593 5599 5606 5615 5623 5633 5641 5648 5655 5661 5666 5670 5674 5676 5679 5682 5684 5686
5663 5651 5641 5632 5625 5617 5611 5605 5600 5596 5592 5589 5586 5583 5580 5577 5574 5572 5570 5568 5566 5566 5566 5568 5571 5575 5581 5588 5596 5605 5615 5625 5634 5641 5648 5654 5659 5663 5667 5670 5673 5676 5678
5645 5635 5626 5618 5612 5605 5599 5594 5590 5586 5582 5579 5576 5573 5570 5568 5565 5563 5561 5559 5557 5556 5556 5557 5558 5561 5566 5572 5579 5589 5599 5610 5619 5628 5636 5642 5648 5653 5658 5662 5665 5668 5671
5631 5621 5613 5607 5601 5595 5589 5585 5581 5577 5573 5569 5566 5564 5561 5558 5556 5555 5553 5551 5549 5548 5548 5548 5549 5551 5554 5559 5566 5575 5586 5597 5607 5617 5625 5632 5639 5644 5649 5654 5658 5662 5665
5619 5610 5603 5596 5590 5584 5579 5574 5570 5565 5562 5559 5556 5553 5551 5549 5547 5545 5544 5542 5541 5540 5540 5540 5541 5543 5546 5550 5555 5564 5574 5586 5596 5606 5616 5623 5630 5636 5641 5646 5651 5655 5659
5609 5600 5592 5586 5579 5574 5568 5563 5558 5553 5549 5547 5544 5542 5540 5538 5537 5535 5534 5533 5533 5532 5533 5534 5535 5536 5539 5542 5547 5555 5565 5576 5587 5597 5606 5615 5622 5629 5635 5640 5645 5650 5654
5599 5590 5582 5575 5568 5562 5556 5550 5545 5540 5536 5533 5531 5529 5528 5527 5526 5525 5525 5525 5525 5525 5526 5528 5529 5531 5533 5537 5542 5549 5558 5569 5580 5590 5599 5608 5616 5624 5629 5635 5640 5645 5649
5588 5579 5571 5563 5556 5549 5542 5536 5531 5526 5522 5519 5517 5516 5515 5514 5514 5515 5516 5516 5517 5518 5520 5522 5524 5526 5529 5533 5538 5545 5554 5565 5575 5585 5594 5603 5611 5618 5625 5630 5636 5641 5646